Date,TemperatureHighF,TemperatureAvgF,TemperatureLowF,DewpointHighF,DewpointAvgF,DewpointLowF,HumidityHigh,HumidityAvg,HumidityLow,PressureMaxIn,PressureMinIn,WindSpeedMaxMPH,WindSpeedAvgMPH,GustSpeedMaxMPH,PrecipitationSumIn
2013-3-3,38,34,28,26,24,19,75,68,60,29.54,29.49,12,5,14,0.02
2013-3-4,32,28,25,21,18,16,75,66,57,29.68,29.47,15,9,20,0.00
2013-3-5,40,34,29,30,25,21,90,70,57,30.04,29.69,11,4,12,0.00
2013-3-6,33,31,28,29,26,21,91,82,70,30.19,30.05,13,9,17,0.00
2013-3-7,32,29,27,22,21,20,79,71,63,30.17,30.04,11,6,17,0.00
2013-3-8,43,36,30,22,17,13,71,47,29,30.17,29.99,11,4,12,0.00
2013-3-9,53,42,32,20,13,4,59,33,14,30.28,30.14,8,2,12,0.00
2013-3-10,45,34,25,27,22,19,79,63,40,30.33,30.20,7,2,16,0.00
2013-3-11,48,40,30,30,28,26,91,62,43,30.20,30.03,4,1,11,0.00
2013-3-12,45,41,37,44,39,31,99,94,76,30.03,29.64,5,1,12,1.88
2013-3-13,44,39,32,44,30,21,99,73,49,29.67,29.61,10,3,17,0.00
2013-3-14,33,27,15,21,13,-3,70,57,45,29.70,29.57,16,7,35,0.00
2013-3-15,35,23,12,22,7,-3,84,53,24,29.73,29.53,14,5,30,0.00
2013-3-16,28,24,20,17,10,6,85,56,40,29.82,29.57,11,6,20,0.00
2013-3-17,24,19,15,8,1,-9,72,47,31,30.24,29.82,19,5,33,0.00
2013-3-18,34,23,10,6,-2,-8,52,34,22,30.38,30.20,5,2,14,0.00
2013-3-19,27,24,20,23,20,7,92,85,43,30.18,29.69,9,4,26,0.00
2013-3-20,31,26,19,25,18,12,92,73,50,29.68,29.56,12,4,26,0.15
2013-3-21,38,28,20,14,10,5,69,49,27,29.69,29.52,5,2,12,0.08
2013-3-22,35,28,22,18,13,9,69,53,36,29.60,29.54,8,4,24,0.00
2013-3-23,34,28,24,24,18,14,80,66,49,29.64,29.47,16,8,37,0.00
2013-3-24,41,34,29,22,21,19,73,59,44,29.73,29.62,15,6,31,0.00
2013-3-25,39,35,26,26,23,20,79,63,51,29.71,29.53,9,4,20,0.00
2013-3-26,44,36,30,23,20,16,67,52,32,29.68,29.53,13,5,25,0.00
2013-3-27,45,39,34,30,24,21,81,57,39,29.81,29.65,13,6,25,0.00
2013-3-28,45,38,32,32,29,25,92,72,45,29.93,29.81,6,2,19,0.00
2013-3-29,48,42,38,32,29,26,76,62,48,29.95,29.89,14,7,25,0.00
2013-3-30,49,40,31,29,20,8,72,48,20,30.02,29.93,8,4,18,0.00
2013-3-31,53,40,27,35,19,14,85,45,23,30.04,29.74,10,2,18,0.01
2013-4-1,49,35,28,40,28,10,97,77,46,29.73,29.43,12,4,25,0.47
2013-4-2,33,26,22,15,10,6,72,51,31,29.75,29.62,11,6,27,0.00
2013-4-3,38,28,24,18,10,2,76,47,23,30.00,29.73,17,8,37,0.00
2013-4-4,52,36,27,14,8,2,52,32,16,30.14,29.87,17,8,37,0.00
2013-4-5,53,42,31,25,19,13,61,41,23,29.85,29.62,13,5,26,0.00
2013-4-6,37,28,20,20,3,-3,80,37,19,30.27,29.78,24,9,38,0.00
2013-4-7,51,38,26,30,15,3,59,40,24,30.26,29.83,5,1,16,0.00
2013-4-8,59,49,42,34,28,20,69,47,22,30.05,29.79,11,3,22,0.00
2013-4-9,50,41,37,40,36,28,98,82,60,30.02,29.82,19,2,27,0.30
2013-4-10,53,44,38,43,38,35,98,83,57,29.91,29.82,10,3,21,0.10
2013-4-11,49,41,35,39,22,6,98,52,21,30.08,29.80,7,2,16,0.00
2013-4-12,35,30,27,28,22,12,95,74,42,30.19,29.86,5,3,15,0.03
2013-4-13,43,36,29,36,33,28,96,87,73,29.87,29.73,7,1,16,0.50
2013-4-14,47,39,32,36,31,27,97,76,48,30.11,29.81,12,4,29,0.03
2013-4-15,54,43,32,32,27,23,77,56,31,30.30,30.11,8,2,21,0.00
2013-4-16,56,44,33,51,38,30,95,81,52,30.30,29.86,5,1,20,0.12
2013-4-17,55,48,39,46,27,21,74,45,27,30.27,29.87,15,7,30,0.00
2013-4-18,50,42,32,34,26,17,71,54,35,30.40,30.05,8,2,15,0.00
2013-4-19,70,60,44,58,50,33,85,71,56,30.02,29.46,8,4,28,0.00
2013-4-20,62,47,36,59,30,17,91,55,29,30.09,29.47,13,7,25,0.13
2013-4-21,49,38,30,18,13,8,58,37,19,30.64,30.12,14,5,29,0.00
2013-4-22,50,38,28,26,14,4,74,39,18,30.73,30.59,10,3,19,0.00
2013-4-23,40,35,28,36,30,22,96,80,68,30.57,30.19,5,1,11,0.00
2013-4-24,70,54,37,52,44,36,98,72,35,30.15,29.64,9,2,18,0.01
2013-4-25,56,50,40,49,30,18,87,48,27,30.23,29.63,15,6,28,0.00
2013-4-26,59,46,32,33,25,20,66,45,26,30.36,30.23,6,1,13,0.00
2013-4-27,62,49,37,34,30,23,75,52,26,30.35,30.20,5,1,12,0.00
2013-4-28,67,51,37,34,31,29,75,50,25,30.26,30.12,7,2,18,0.00
2013-4-29,68,52,41,42,34,31,71,54,26,30.18,30.08,8,2,16,0.00
2013-4-30,70,57,42,39,34,28,79,46,25,30.28,30.15,10,2,20,0.00
2013-5-1,75,60,42,36,31,28,64,37,17,30.36,30.28,7,2,18,0.00
2013-5-2,74,56,44,43,34,28,60,46,24,30.42,30.29,10,2,17,0.00
2013-5-3,66,52,36,41,35,29,79,55,35,30.48,30.30,6,1,18,0.00
2013-5-4,70,54,42,42,36,25,87,56,19,30.30,30.16,10,3,20,0.00
2013-5-5,72,53,37,38,34,29,89,55,22,30.25,30.11,6,2,16,0.00
2013-5-6,73,56,40,43,35,23,85,53,16,30.17,30.02,8,2,17,0.00
2013-5-7,79,62,44,48,39,30,78,49,17,30.07,29.96,8,2,16,0.00
2013-5-8,75,62,52,57,51,45,96,69,38,30.11,30.01,8,3,23,0.08
2013-5-9,68,58,55,59,56,54,99,94,64,29.98,29.81,8,1,12,0.58
2013-5-10,71,61,53,61,56,53,99,85,56,29.85,29.80,5,0,12,0.04
2013-5-11,61,57,53,61,56,53,99,98,85,29.81,29.58,4,1,11,0.53
2013-5-12,67,56,44,58,46,23,99,73,39,29.64,29.45,8,2,19,0.01
2013-5-13,53,45,38,30,25,22,64,47,31,29.96,29.65,8,4,26,0.00
2013-5-14,57,47,34,29,23,16,79,41,25,29.96,29.89,10,3,23,0.00
2013-5-15,65,47,33,46,33,24,98,64,25,29.96,29.58,7,2,19,0.17
2013-5-16,73,56,44,54,42,30,99,67,22,29.73,29.49,13,3,29,0.00
2013-5-17,64,54,46,40,36,32,73,54,35,30.15,29.72,10,3,24,0.00
2013-5-18,66,56,43,45,40,31,88,57,27,30.24,30.15,6,2,15,0.00
2013-5-19,61,51,40,50,46,39,98,84,60,30.28,30.13,6,2,14,0.18
2013-5-20,70,58,49,61,52,49,99,84,54,30.11,29.85,9,2,21,0.37
2013-5-21,55,52,48,55,51,48,99,96,88,29.99,29.87,6,1,19,0.54
2013-5-22,58,52,48,52,50,47,99,95,83,29.91,29.85,4,1,12,0.20
2013-5-23,68,58,49,64,56,48,100,95,81,29.86,29.67,6,1,14,0.08
2013-5-24,64,58,46,64,54,42,99,88,65,29.78,29.55,7,2,21,0.90
2013-5-25,47,43,38,42,39,34,92,85,75,29.78,29.65,8,4,25,0.85
2013-5-26,52,45,39,38,34,28,86,67,46,29.92,29.61,13,6,30,0.04
2013-5-27,63,52,38,37,32,26,84,51,27,30.11,29.93,11,4,31,0.00
2013-5-28,71,58,39,41,36,32,87,50,24,30.16,30.07,6,2,18,0.00
2013-5-29,55,50,47,54,48,40,99,90,68,30.11,29.93,2,0,6,0.23
2013-5-30,84,71,52,60,57,52,100,65,38,29.96,29.90,12,4,26,0.00
2013-5-31,90,76,61,65,61,58,92,62,37,29.97,29.81,4,1,12,0.00
2013-6-1,92,78,65,67,61,54,88,59,28,29.83,29.71,10,1,24,0.01
2013-6-2,91,77,66,69,64,62,88,68,41,29.72,29.52,8,2,21,0.00
2013-6-3,66,63,62,61,61,60,97,92,83,29.69,29.68,1,0,2,0.00
2013-6-4,61,56,51,42,40,38,67,55,44,30.00,29.77,11,7,17,0.00
2013-6-5,71,61,47,43,36,28,78,43,22,30.08,30.00,6,2,6,0.00
2013-6-6,70,59,51,50,42,35,84,54,34,30.14,30.05,6,2,9,0.00
2013-6-7,54,52,49,51,49,44,96,92,79,30.06,29.92,5,0,7,0.51
2013-6-8,72,59,51,58,52,49,96,81,59,29.89,29.65,13,3,18,0.62
2013-6-9,73,64,54,56,51,49,88,64,45,30.08,29.90,9,3,11,0.00
2013-6-10,69,60,51,56,52,47,92,76,49,30.13,29.96,4,1,7,0.00
2013-6-11,57,54,52,54,52,51,97,92,85,29.96,29.51,6,2,6,0.90
2013-6-12,61,57,52,52,50,47,97,79,67,29.74,29.48,6,3,11,0.02
2013-6-13,69,59,50,54,50,43,92,72,49,29.73,29.64,5,1,7,0.00
2013-6-14,76,63,52,55,49,40,98,65,28,29.67,29.60,8,2,9,0.00
2013-6-15,73,63,51,45,40,33,65,44,27,29.83,29.68,8,3,16,0.00
2013-6-16,77,60,51,59,51,43,98,74,37,29.83,29.62,6,1,9,0.12
2013-6-17,76,62,55,63,56,52,96,82,48,29.79,29.65,6,2,11,0.41
2013-6-18,65,59,51,54,51,47,93,77,59,29.89,29.79,6,1,16,0.01
2013-6-19,73,61,47,48,42,34,87,53,27,30.08,29.87,6,1,9,0.00
2013-6-20,77,62,45,47,43,36,85,55,23,30.17,30.09,7,1,11,0.00
2013-6-21,80,64,53,56,49,44,78,59,31,30.15,30.11,5,1,13,0.00
2013-6-22,78,66,58,66,58,49,97,77,49,30.13,30.05,6,0,8,0.21
2013-6-23,79,68,62,71,65,61,99,91,76,30.05,29.90,8,2,14,0.64
2013-6-24,90,74,64,70,65,61,99,77,44,29.89,29.77,11,3,12,0.02
2013-6-25,90,76,66,68,64,54,97,69,43,29.77,29.61,10,2,17,0.05
2013-6-26,72,67,61,68,65,60,98,92,83,29.77,29.62,4,0,5,0.04
2013-6-27,71,62,58,65,60,57,100,95,78,29.78,29.71,5,2,6,0.01
2013-6-28,62,59,56,61,58,55,99,98,96,29.73,29.46,7,2,9,1.04
2013-6-29,77,65,60,68,63,60,100,95,68,29.59,29.44,4,1,7,0.99
2013-6-30,85,72,61,69,64,60,100,80,44,29.81,29.59,3,0,6,0.01
2013-7-1,77,51,68,69,18,-100,98,60,71,30.00,29.81,3,-291,5,0.50
2013-7-2,-200,0,200,-100,-100,-100,0,0,100,30.16,29.97,0,-999,0,0.00
2013-7-3,88,42,61,73,-8,-100,100,42,55,30.14,29.96,5,-456,5,0.00
2013-7-4,81,72,67,72,68,66,98,89,68,30.07,30.04,1,0,3,0.00
2013-7-6,72,72,72,66,63,58,81,75,62,29.93,29.90,2,1,2,0.00
2013-7-7,87,78,71,69,65,59,84,66,46,29.89,29.81,4,1,5,0.00
2013-7-8,71,68,65,69,66,64,99,93,79,29.99,29.82,3,0,4,0.58
2013-7-9,72,66,64,68,65,64,100,96,84,30.04,29.98,6,1,9,0.16
2013-7-10,65,64,63,65,64,63,100,100,98,29.99,29.71,2,0,4,0.75
2013-7-11,80,68,63,69,62,56,100,84,53,29.90,29.68,5,1,7,0.22
2013-7-12,78,67,56,62,58,53,89,72,51,30.13,29.91,5,1,5,0.00
2013-7-13,80,69,58,65,60,57,97,76,44,30.23,30.15,3,1,6,0.00
2013-7-14,83,74,63,70,66,62,97,77,57,30.20,30.09,4,1,7,0.00
2013-7-15,89,75,65,69,64,59,93,71,43,30.11,30.00,7,1,11,0.00
2013-7-16,89,79,69,71,64,61,80,62,45,30.08,30.03,5,1,8,0.00
2013-7-17,93,77,65,70,66,61,96,70,39,30.08,29.87,5,1,5,0.17
2013-7-18,90,78,69,72,68,64,97,75,48,29.91,29.83,4,1,6,0.15
2013-7-19,90,76,67,74,68,63,99,81,50,29.84,29.54,17,2,29,0.08
2013-7-20,86,76,68,68,64,55,90,68,51,29.68,29.51,7,2,13,0.01
2013-7-21,80,69,59,62,58,50,88,71,35,29.93,29.72,4,1,11,0.00
2013-7-22,71,64,57,64,59,54,93,84,65,29.97,29.85,4,1,5,0.00
2013-7-23,67,64,60,67,63,60,99,98,93,29.83,29.47,2,0,4,1.27
2013-7-24,76,65,54,69,59,45,100,81,53,29.90,29.50,10,2,15,0.00
2013-7-25,72,60,49,57,49,43,86,70,49,30.04,29.91,6,1,12,0.00
2013-7-26,71,64,60,61,59,54,94,82,67,30.03,29.86,5,1,5,0.06
2013-7-27,82,69,61,63,59,55,88,72,41,29.93,29.86,6,1,7,0.00
2013-7-28,76,66,58,65,62,56,98,86,64,29.95,29.91,6,2,9,0.08
2013-7-29,77,66,60,68,63,58,99,90,63,29.97,29.87,5,1,12,0.12
2013-7-30,76,66,57,59,54,48,99,68,39,30.01,29.95,8,2,9,0.00
2013-7-31,79,67,58,59,55,50,87,67,38,30.05,29.94,6,1,9,0.00
2013-8-1,77,63,55,63,59,53,99,87,51,29.95,29.76,7,2,13,0.17
2013-8-2,79,68,60,68,59,53,100,77,40,29.76,29.65,5,1,7,0.25
2013-8-3,76,66,54,58,54,51,96,69,43,29.75,29.65,6,2,12,0.00
2013-8-4,73,64,58,54,52,47,80,65,51,29.77,29.67,8,4,12,0.00
2013-8-5,70,61,52,49,45,35,75,57,33,29.96,29.75,11,5,15,0.00
2013-8-6,75,62,49,54,49,45,85,64,40,30.07,29.96,6,1,11,0.00
2013-8-7,77,62,51,58,53,49,95,73,47,30.10,30.01,4,1,11,0.00
2013-8-8,77,66,58,68,62,54,99,89,71,30.00,29.90,8,2,10,0.08
2013-8-9,69,67,63,69,67,62,99,99,95,29.92,29.65,3,0,7,1.88
2013-8-10,72,66,58,64,52,41,99,64,33,29.91,29.67,12,5,19,0.00
2013-8-11,77,64,56,54,49,45,83,59,37,29.96,29.90,7,2,10,0.00
2013-8-12,79,65,54,57,53,51,91,68,38,29.93,29.82,4,1,7,0.00
2013-8-13,65,61,56,63,59,53,99,92,79,29.83,29.61,2,0,5,0.70
2013-8-14,69,62,58,63,54,46,100,78,49,29.80,29.56,11,3,17,0.00
2013-8-15,72,61,53,53,48,45,88,65,43,30.01,29.82,7,3,13,0.00
2013-8-16,76,62,50,59,52,48,93,72,44,30.10,29.99,3,0,5,0.00
2013-8-17,76,64,54,56,51,45,94,66,35,30.20,30.12,7,2,13,0.00
2013-8-18,77,63,51,62,54,48,90,73,48,30.21,29.98,3,0,6,0.00
2013-8-19,78,69,57,60,55,50,90,64,44,29.97,29.83,10,4,16,0.00
2013-8-20,83,72,63,61,58,54,82,62,39,30.00,29.87,6,2,11,0.00
2013-8-21,86,73,61,64,61,58,89,68,40,30.05,29.90,6,2,10,0.00
2013-8-22,86,73,63,65,60,57,86,66,38,29.90,29.68,8,1,8,0.00
2013-8-23,73,66,56,60,50,43,73,57,34,30.08,29.69,10,3,12,0.00
2013-8-24,76,62,47,52,46,39,86,60,27,30.24,30.09,3,1,6,0.00
2013-8-25,78,63,50,55,49,42,84,63,30,30.28,30.06,7,1,11,0.00
2013-8-26,75,65,58,65,60,52,98,85,67,30.05,29.79,9,1,14,0.05
2013-8-27,82,71,62,67,63,61,96,78,53,29.81,29.75,4,0,9,0.00
2013-8-28,83,70,60,67,63,59,96,81,55,29.92,29.77,5,1,9,0.12
2013-8-29,65,61,59,63,60,58,99,96,88,30.02,29.89,5,0,10,0.21
2013-8-30,83,68,58,66,62,58,100,84,51,29.95,29.70,5,1,5,0.03
2013-8-31,78,69,64,69,66,64,98,90,68,29.72,29.67,5,1,8,0.04
2013-9-1,83,72,65,69,66,64,99,85,54,29.81,29.68,5,1,9,0.06
2013-9-2,69,66,64,66,64,63,99,95,86,29.79,29.66,4,1,4,1.52
2013-9-3,72,65,60,67,62,55,100,88,73,29.68,29.61,6,1,9,0.12
2013-9-4,75,66,60,57,53,45,86,64,35,29.81,29.67,10,5,15,0.00
2013-9-5,63,57,48,55,44,34,95,64,34,30.07,29.77,10,3,13,0.02
2013-9-6,70,55,39,43,39,36,90,57,32,30.15,29.95,6,2,9,0.00
2013-9-7,72,61,52,56,49,39,75,63,48,29.94,29.71,7,2,11,0.00
2013-9-8,63,56,45,55,45,33,94,68,48,30.00,29.64,15,4,30,0.08
2013-9-9,68,53,40,47,42,35,88,66,39,30.12,30.00,5,1,9,0.00
2013-9-10,64,57,48,62,53,44,98,89,77,30.02,29.94,3,0,4,0.04
2013-9-11,91,73,60,71,66,60,100,83,44,29.96,29.81,7,1,11,0.47
2013-9-12,77,67,63,70,65,62,99,93,77,29.88,29.57,8,1,10,0.70
2013-9-13,63,60,54,63,58,51,99,94,84,29.67,29.51,5,1,10,0.49
2013-9-14,65,56,49,55,50,44,97,80,59,29.95,29.67,8,2,10,0.09
2013-9-15,68,55,44,51,45,40,88,71,48,30.05,29.91,5,1,9,0.00
2013-9-16,59,52,42,51,43,28,92,73,47,30.20,29.89,11,3,14,0.02
2013-9-17,66,51,39,42,36,31,86,58,29,30.35,30.20,5,2,10,0.00
2013-9-18,69,54,41,49,42,34,90,65,32,30.24,30.04,5,1,8,0.00
2013-9-19,73,60,50,55,47,40,83,64,45,30.05,29.94,5,1,9,0.00
2013-9-20,73,60,49,56,50,44,93,72,46,30.03,29.92,4,1,9,0.00
2013-9-21,69,57,47,61,54,47,99,90,55,29.92,29.65,6,1,9,0.03
2013-9-22,69,59,48,62,52,39,97,79,54,29.70,29.48,11,5,21,0.60
2013-9-23,51,47,43,40,36,34,79,67,59,29.89,29.70,13,8,21,0.00
2013-9-24,57,48,44,42,38,34,87,69,52,29.87,29.74,15,7,19,0.00
2013-9-25,59,49,42,48,42,40,92,79,64,29.94,29.80,5,1,9,0.00
2013-9-26,65,50,40,48,43,39,96,81,51,30.09,29.94,6,1,11,0.00
2013-9-27,70,56,49,54,48,46,89,77,51,30.20,30.08,3,0,3,0.00
2013-9-28,71,58,48,53,49,46,95,76,46,30.28,30.20,4,1,9,0.00
2013-9-29,69,55,46,53,48,46,98,81,49,30.19,30.03,5,1,7,0.01
2013-9-30,69,54,44,53,48,43,98,83,48,30.04,29.91,3,1,7,0.01
2013-10-1,76,58,47,55,50,46,97,77,35,29.91,29.76,5,1,7,0.01
2013-10-2,74,62,55,57,52,45,91,69,49,29.81,29.70,9,2,14,0.00
2013-10-3,71,61,50,48,44,39,81,55,36,29.99,29.81,12,4,21,0.00
2013-10-4,65,56,48,53,48,42,87,76,60,30.03,29.96,3,0,4,0.00
2013-10-5,60,55,50,49,46,40,87,71,52,30.08,30.00,4,1,4,0.00
2013-10-6,52,48,44,44,40,34,97,75,55,30.21,30.08,3,0,4,0.19
2013-10-7,62,51,45,62,50,44,99,97,75,30.14,29.65,5,1,16,0.65
2013-10-8,58,51,41,45,37,33,80,60,42,30.32,29.77,13,6,26,0.00
2013-10-9,60,46,35,42,36,31,91,70,42,30.43,30.29,4,1,10,0.00
2013-10-10,63,48,39,45,40,36,93,74,38,30.29,30.13,3,0,5,0.00
2013-10-11,67,55,48,49,43,37,78,65,39,30.13,30.07,2,0,3,0.00
2013-10-12,54,52,49,50,49,44,98,89,75,30.34,30.13,4,1,12,0.00
2013-10-13,53,49,47,48,47,46,99,91,79,30.39,30.31,3,1,6,0.00
2013-10-14,62,53,45,52,47,44,95,83,64,30.31,30.15,4,1,6,0.00
2013-10-15,63,56,50,52,50,48,95,81,61,30.21,30.11,4,1,10,0.00
2013-10-16,56,52,47,51,49,46,96,88,75,30.10,29.83,4,1,7,0.00
2013-10-17,68,53,46,52,46,44,97,82,43,29.81,29.64,7,1,16,0.00
2013-10-18,60,54,49,51,45,33,99,73,52,29.76,29.53,10,3,19,0.43
2013-10-19,63,52,46,44,38,34,74,60,37,29.84,29.64,7,2,13,0.00
2013-10-20,55,50,44,45,37,27,94,64,39,29.88,29.57,10,4,20,0.02
2013-10-21,58,48,38,41,36,32,80,65,49,30.00,29.88,4,1,13,0.00
2013-10-22,51,47,42,48,40,28,97,77,54,29.87,29.62,8,3,18,0.05
2013-10-23,50,43,37,32,28,25,74,57,43,29.68,29.52,7,2,14,0.00
2013-10-24,43,40,35,35,27,21,91,60,43,29.75,29.54,11,5,23,0.02
2013-10-25,42,38,36,32,26,22,86,62,49,30.02,29.75,13,7,27,0.00
2013-10-26,43,37,29,30,25,21,76,62,49,30.03,29.77,6,2,18,0.00
2013-10-27,48,41,36,34,30,25,84,66,52,29.92,29.69,9,3,21,0.00
2013-10-28,47,38,31,34,27,17,82,66,47,30.26,29.92,15,5,34,0.01
2013-10-29,43,33,25,19,16,12,69,51,30,30.39,30.27,5,1,6,0.00
2013-10-30,45,36,27,28,22,12,72,56,47,30.29,30.12,10,4,17,0.00
2013-10-31,49,40,32,49,37,27,99,89,72,30.16,29.66,4,1,5,0.63
2013-11-1,64,59,50,59,49,38,99,72,44,29.63,29.22,18,6,20,0.91
2013-11-2,59,51,38,43,39,29,85,64,45,29.69,29.48,11,4,24,0.00
2013-11-3,40,34,27,29,17,8,75,53,28,30.36,29.69,7,4,29,0.00
2013-11-4,42,32,24,16,13,10,68,46,28,30.65,30.36,3,1,4,0.00
2013-11-5,41,32,24,25,20,15,73,62,46,30.65,30.43,6,1,6,0.00
2013-11-6,54,44,32,41,35,24,80,72,58,30.41,29.87,4,1,6,0.00
2013-11-7,54,45,35,50,38,22,98,78,55,29.86,29.59,16,5,17,0.16
2013-11-8,38,34,32,27,22,18,69,60,51,29.89,29.69,18,9,20,0.00
2013-11-10,39,36,30,36,33,29,96,92,74,29.80,29.63,10,2,11,0.10
2013-11-11,42,36,32,32,27,23,81,68,48,29.93,29.69,20,6,21,0.00
2013-11-12,37,27,23,33,16,11,90,65,56,30.05,29.73,18,7,29,0.01
2013-11-13,29,25,19,17,10,7,64,55,42,30.16,29.98,19,9,27,0.00
2013-11-14,43,35,25,28,23,16,83,63,52,29.99,29.91,16,6,24,0.00
2013-11-15,48,38,29,27,22,17,86,55,31,30.11,29.99,4,1,8,0.00
2013-11-16,54,43,36,24,21,17,63,44,24,30.26,30.09,5,1,5,0.00
2013-11-17,42,37,32,41,32,24,98,84,63,30.28,29.85,4,1,4,0.32
2013-11-18,57,48,41,50,38,25,99,70,43,29.83,29.38,13,4,20,0.72
2013-11-19,43,32,27,27,17,10,64,54,46,30.18,29.47,24,14,32,0.00
2013-11-20,39,29,24,11,8,-1,58,42,20,30.57,30.19,10,4,15,0.00
2013-11-21,42,32,23,14,8,3,54,36,23,30.57,30.25,4,1,7,0.00
2013-11-22,35,33,31,33,26,9,98,80,36,30.25,29.69,2,0,3,0.03
2013-11-23,40,29,21,37,19,10,99,65,47,29.80,29.61,18,8,36,0.01
2013-11-24,21,15,11,12,3,-2,85,58,47,30.02,29.66,21,10,34,0.00
2013-11-25,25,18,10,7,-1,-9,57,44,24,30.23,30.06,20,8,24,0.00
2013-11-26,29,26,20,26,21,7,96,85,49,30.23,30.09,3,1,5,0.02
2013-11-27,45,37,27,44,35,24,99,94,66,30.06,29.15,21,3,24,1.31
2013-11-28,33,21,16,25,9,3,76,59,45,30.32,29.22,19,10,24,0.00
2013-11-29,24,17,11,4,2,-4,70,51,29,30.68,30.32,13,5,17,0.00
2013-11-30,26,17,7,17,6,0,84,63,42,30.76,30.35,5,1,7,0.00
2013-12-1,34,29,21,28,24,16,91,80,69,30.36,30.01,4,1,5,0.00
2013-12-2,38,34,30,35,32,28,98,94,88,30.00,29.86,3,0,3,0.04
2013-12-3,40,35,29,38,30,22,99,84,58,29.86,29.78,9,2,10,0.01
2013-12-4,38,33,28,24,22,18,75,62,53,30.12,29.82,15,3,17,0.00
2013-12-5,36,32,28,36,28,22,99,88,72,30.19,29.81,2,0,3,0.11
2013-12-6,42,37,33,40,28,11,99,72,38,30.02,29.78,15,5,18,0.21
2013-12-7,33,27,21,20,11,5,64,52,40,30.35,29.98,17,9,23,0.00
2013-12-8,26,22,18,10,5,1,62,48,37,30.49,30.34,15,6,19,0.00
2013-12-9,24,21,17,22,16,7,93,84,56,30.45,29.77,2,0,4,0.00
2013-12-10,32,26,18,28,19,7,94,75,57,29.82,29.66,8,2,12,0.00
2013-12-11,24,19,15,16,10,3,89,65,48,30.06,29.83,10,4,18,0.00
2013-12-12,14,9,6,1,-5,-10,68,54,40,30.19,29.92,14,6,17,0.00
2013-12-13,13,8,0,5,-3,-14,83,62,41,30.31,29.83,17,8,21,0.00
2013-12-14,10,4,-3,2,-10,-16,82,52,35,30.54,30.32,5,1,6,0.00
2013-12-15,24,18,6,19,13,2,90,82,67,30.29,29.40,15,5,16,0.00
2013-12-16,20,14,3,13,-1,-12,83,53,31,30.11,29.57,21,6,23,0.00
2013-12-17,10,4,-5,6,-6,-14,84,63,45,30.24,30.03,4,1,6,0.00
2013-12-18,28,20,9,16,13,5,86,72,51,30.00,29.79,15,3,17,0.01
2013-12-19,35,29,22,26,20,14,89,71,57,30.00,29.83,11,3,11,0.00
2013-12-20,35,32,29,30,27,24,94,84,68,30.03,29.83,9,1,14,0.00
2013-12-21,49,36,30,45,34,28,96,91,80,29.86,29.75,4,1,6,0.24
2013-12-22,36,31,26,35,30,25,97,96,95,29.98,29.81,4,1,5,0.47
2013-12-23,33,29,26,33,28,25,99,95,79,30.04,29.92,0,0,0,0.00
2013-12-24,30,24,9,24,14,-2,85,68,53,30.13,29.96,12,3,16,0.00
2013-12-25,19,10,3,6,-1,-10,82,62,46,30.49,30.11,15,4,19,0.00
2013-12-26,26,16,9,18,11,3,90,81,64,30.44,30.03,20,2,20,0.00
2013-12-27,28,26,22,19,15,12,78,64,49,30.11,30.05,11,4,18,0.00
2013-12-28,38,28,16,29,21,12,86,74,64,30.07,29.85,14,3,16,0.01
2013-12-29,37,31,28,31,28,25,97,88,69,29.92,29.49,7,1,8,0.00
2013-12-30,37,20,3,33,11,-11,98,68,41,30.09,29.47,19,7,25,0.00
2013-12-31,15,5,-2,4,-5,-13,82,64,48,30.08,29.95,6,1,7,0.00
2014-1-1,16,12,7,5,-1,-8,81,58,44,30.31,30.02,16,6,20,0.00
2014-1-2,7,2,-3,-1,-6,-11,80,71,42,30.32,29.95,14,2,14,0.00